| time (UTC) | temp C | wind direction | speed KPH | gust KPH | rain 1hr cm | rain 24hr cm | rain mn cm | humidity % | barometer mb |
| 20260505184003 | 11 | 337 | 1.6 | 3.2 | 0.00 | 0.00 | 0.00 | 67 | 1014.0 |
| 20260505183717 | 11 | 328 | 1.6 | 3.2 | 0.00 | 0.00 | 0.00 | 70 | 1013.7 |
| 20260505183003 | 11 | 312 | 1.6 | 6.4 | 0.00 | 0.00 | 0.00 | 70 | 1014.0 |
| 20260505182503 | 11 | 302 | 3.2 | 8.0 | 0.00 | 0.00 | 0.00 | 66 | 1013.9 |
| 20260505182003 | 11 | 309 | 1.6 | 8.0 | 0.00 | 0.00 | 0.00 | 65 | 1013.9 |
| 20260505181503 | 11 | 320 | 1.6 | 8.0 | 0.00 | 0.00 | 0.00 | 69 | 1013.9 |
| 20260505181003 | 11 | 327 | 1.6 | 3.2 | 0.00 | 0.00 | 0.00 | 72 | 1014.0 |
| 20260505180503 | 11 | 330 | 0.0 | 3.2 | 0.00 | 0.00 | 0.00 | 71 | 1014.1 |
| 20260505180003 | 11 | 342 | 0.0 | 3.2 | 0.00 | 0.00 | 0.00 | 70 | 1013.9 |
| 20260505175504 | 11 | 329 | 1.6 | 3.2 | 0.00 | 0.00 | 0.00 | 68 | 1013.9 |
| 20260505175003 | 11 | 327 | 1.6 | 3.2 | 0.00 | 0.00 | 0.00 | 65 | 1013.8 |
| 20260505174503 | 11 | 341 | 1.6 | 3.2 | 0.00 | 0.00 | 0.00 | 68 | 1013.9 |
| 20260505174003 | 12 | 345 | 1.6 | 3.2 | 0.00 | 0.00 | 0.00 | 67 | 1014.1 |
| 20260505173503 | 12 | 338 | 1.6 | 3.2 | 0.00 | 0.00 | 0.00 | 67 | 1014.0 |
| 20260505173218 | 12 | 337 | 1.6 | 3.2 | 0.00 | 0.00 | 0.00 | 66 | 1013.8 |
| 20260505172717 | 12 | 341 | 1.6 | 3.2 | 0.00 | 0.00 | 0.00 | 65 | 1014.0 |
| 20260505172218 | 12 | 319 | 1.6 | 3.2 | 0.00 | 0.00 | 0.00 | 67 | 1014.1 |
| 20260505171503 | 12 | 299 | 1.6 | 4.8 | 0.00 | 0.00 | 0.00 | 65 | 1013.8 |
| 20260505171003 | 12 | 332 | 1.6 | 4.8 | 0.00 | 0.00 | 0.00 | 67 | 1013.9 |
| 20260505170503 | 11 | 327 | 1.6 | 3.2 | 0.00 | 0.00 | 0.00 | 67 | 1013.9 |
| 20260505170218 | 12 | 309 | 1.6 | 4.8 | 0.00 | 0.00 | 0.00 | 67 | 1014.0 |
| 20260505165503 | 12 | 300 | 1.6 | 4.8 | 0.00 | 0.00 | 0.00 | 66 | 1014.0 |
| 20260505165003 | 12 | 310 | 1.6 | 3.2 | 0.00 | 0.00 | 0.00 | 67 | 1014.0 |
| 20260505164503 | 12 | 305 | 1.6 | 6.4 | 0.00 | 0.00 | 0.00 | 66 | 1014.0 |
| 20260505164217 | 12 | 304 | 1.6 | 6.4 | 0.00 | 0.00 | 0.00 | 65 | 1014.0 |
| 20260505163503 | 11 | 318 | 1.6 | 3.2 | 0.00 | 0.00 | 0.00 | 66 | 1014.0 |
| 20260505163003 | 12 | 297 | 1.6 | 3.2 | 0.00 | 0.00 | 0.00 | 65 | 1014.2 |
| 20260505162503 | 12 | 292 | 1.6 | 3.2 | 0.00 | 0.00 | 0.00 | 67 | 1013.9 |
| 20260505162003 | 12 | 278 | 1.6 | 4.8 | 0.00 | 0.00 | 0.00 | 65 | 1014.1 |
| 20260505161503 | 11 | 278 | 1.6 | 4.8 | 0.00 | 0.00 | 0.00 | 65 | 1014.2 |
| 20260505161003 | 12 | 299 | 1.6 | 3.2 | 0.00 | 0.00 | 0.00 | 67 | 1014.4 |
| 20260505160718 | 12 | 281 | 1.6 | 4.8 | 0.00 | 0.00 | 0.00 | 67 | 1014.2 |
| 20260505160217 | 12 | 271 | 1.6 | 4.8 | 0.00 | 0.00 | 0.00 | 66 | 1014.0 |
| 20260505153003 | 12 | 352 | 1.6 | 6.4 | 0.00 | 0.00 | 0.00 | 70 | 1014.2 |
| 20260505152504 | 12 | 349 | 1.6 | 6.4 | 0.00 | 0.00 | 0.00 | 64 | 1014.0 |
| 20260505152217 | 12 | 275 | 1.6 | 4.8 | 0.00 | 0.00 | 0.00 | 64 | 1014.3 |
| 20260505151503 | 12 | 25 | 1.6 | 4.8 | 0.00 | 0.00 | 0.00 | 63 | 1014.1 |
| 20260505151217 | 12 | 269 | 1.6 | 6.4 | 0.00 | 0.00 | 0.00 | 65 | 1014.2 |
| 20260505150503 | 12 | 272 | 1.6 | 6.4 | 0.00 | 0.00 | 0.00 | 66 | 1014.3 |
| 20260505140503 | 12 | 347 | 1.6 | 3.2 | 0.00 | 0.00 | 0.00 | 65 | 1014.2 |
| 20260505130218 | 12 | 263 | 1.6 | 6.4 | 0.00 | 0.00 | 0.00 | 62 | 1014.2 |
| 20260505125003 | 12 | 257 | 1.6 | 6.4 | 0.00 | 0.00 | 0.00 | 64 | 1014.0 |
| 20260505124717 | 12 | 244 | 1.6 | 6.4 | 0.00 | 0.00 | 0.00 | 62 | 1014.2 |
| 20260505124004 | 12 | 220 | 3.2 | 9.7 | 0.00 | 0.00 | 0.00 | 60 | 1014.4 |
| 20260505123503 | 12 | 203 | 4.8 | 9.7 | 0.00 | 0.00 | 0.00 | 61 | 1014.3 |
| 20260505123218 | 12 | 195 | 3.2 | 9.7 | 0.00 | 0.00 | 0.00 | 60 | 1014.3 |
| 20260505122717 | 12 | 204 | 3.2 | 8.0 | 0.00 | 0.00 | 0.00 | 60 | 1014.3 |
| 20260505122003 | 12 | 202 | 3.2 | 8.0 | 0.00 | 0.00 | 0.00 | 61 | 1014.2 |
| 20260505121503 | 13 | 198 | 3.2 | 8.0 | 0.00 | 0.00 | 0.00 | 58 | 1014.3 |
| 20260505121003 | 13 | 228 | 3.2 | 8.0 | 0.00 | 0.00 | 0.00 | 55 | 1014.4 |
| 20260505120503 | 13 | 235 | 3.2 | 6.4 | 0.00 | 0.00 | 0.00 | 54 | 1014.1 |
| 20260505120003 | 12 | 229 | 3.2 | 6.4 | 0.00 | 0.00 | 0.00 | 57 | 1014.3 |
| 20260505115503 | 12 | 235 | 1.6 | 6.4 | 0.00 | 0.00 | 0.00 | 55 | 1014.5 |
| 20260505115003 | 12 | 260 | 3.2 | 6.4 | 0.00 | 0.00 | 0.00 | 59 | 1014.3 |
| 20260505114503 | 12 | 241 | 4.8 | 9.7 | 0.00 | 0.00 | 0.00 | 57 | 1014.3 |
| 20260505114218 | 12 | 234 | 3.2 | 9.7 | 0.00 | 0.00 | 0.00 | 59 | 1014.4 |
| 20260505113503 | 12 | 292 | 1.6 | 6.4 | 0.00 | 0.00 | 0.00 | 59 | 1014.3 |
| 20260505113003 | 12 | 217 | 3.2 | 6.4 | 0.00 | 0.00 | 0.00 | 60 | 1014.5 |
| 20260505112503 | 12 | 230 | 3.2 | 6.4 | 0.00 | 0.00 | 0.00 | 60 | 1014.4 |
| 20260505112003 | 12 | 276 | 1.6 | 4.8 | 0.00 | 0.00 | 0.00 | 61 | 1014.7 |
| 20260505111503 | 12 | 318 | 1.6 | 3.2 | 0.00 | 0.00 | 0.00 | 58 | 1014.5 |
| 20260505111003 | 12 | 296 | 1.6 | 3.2 | 0.00 | 0.00 | 0.00 | 61 | 1014.7 |
| 20260505110503 | 12 | 260 | 1.6 | 3.2 | 0.00 | 0.00 | 0.00 | 60 | 1014.6 |
| 20260505110217 | 12 | 289 | 1.6 | 3.2 | 0.00 | 0.00 | 0.00 | 63 | 1014.8 |
| 20260505102003 | 11 | 343 | 1.6 | 3.2 | 0.00 | 0.00 | 0.00 | 76 | 1014.8 |
| 20260505101503 | 11 | 324 | 0.0 | 3.2 | 0.00 | 0.00 | 0.00 | 77 | 1015.1 |
| 20260505101003 | 11 | 279 | 0.0 | 3.2 | 0.00 | 0.00 | 0.00 | 72 | 1015.0 |
| 20260505100718 | 11 | 315 | 0.0 | 3.2 | 0.00 | 0.00 | 0.00 | 72 | 1015.1 |
| 20260505100003 | 11 | 337 | 0.0 | 3.2 | 0.00 | 0.00 | 0.00 | 76 | 1014.9 |
| 20260505095718 | 11 | 336 | 0.0 | 3.2 | 0.00 | 0.00 | 0.00 | 76 | 1014.9 |
| 20260505095003 | 11 | 357 | 0.0 | 6.4 | 0.00 | 0.00 | 0.00 | 76 | 1015.0 |
| 20260505094503 | 10 | 264 | 1.6 | 6.4 | 0.00 | 0.00 | 0.00 | 75 | 1015.1 |
| 20260505094217 | 10 | 259 | 1.6 | 3.2 | 0.00 | 0.00 | 0.00 | 74 | 1014.9 |
| 20260505093503 | 10 | 266 | 0.0 | 3.2 | 0.00 | 0.00 | 0.00 | 76 | 1014.9 |
| 20260505093003 | 10 | 298 | 0.0 | 3.2 | 0.00 | 0.00 | 0.00 | 78 | 1015.2 |
| 20260505092503 | 10 | 285 | 0.0 | 4.8 | 0.00 | 0.00 | 0.00 | 80 | 1015.4 |
| 20260505092003 | 10 | 275 | 1.6 | 4.8 | 0.00 | 0.00 | 0.00 | 82 | 1015.1 |
| 20260505091718 | 9 | 269 | 1.6 | 4.8 | 0.00 | 0.00 | 0.00 | 82 | 1015.3 |
| 20260505091003 | 9 | 261 | 1.6 | 3.2 | 0.00 | 0.00 | 0.00 | 83 | 1015.2 |
| 20260505090718 | 9 | 259 | 1.6 | 4.8 | 0.00 | 0.00 | 0.00 | 84 | 1015.2 |
| 20260505090218 | 9 | 256 | 1.6 | 4.8 | 0.00 | 0.00 | 0.00 | 85 | 1015.6 |
| 20260505085717 | 8 | 265 | 1.6 | 4.8 | 0.00 | 0.00 | 0.00 | 84 | 1015.1 |
| 20260505085003 | 8 | 275 | 1.6 | 4.8 | 0.00 | 0.00 | 0.00 | 86 | 1015.1 |
| 20260505084503 | 8 | 265 | 1.6 | 4.8 | 0.00 | 0.00 | 0.00 | 86 | 1015.2 |
| 20260505084003 | 8 | 270 | 1.6 | 4.8 | 0.00 | 0.00 | 0.00 | 87 | 1015.4 |
| 20260505083717 | 8 | 274 | 1.6 | 4.8 | 0.00 | 0.00 | 0.00 | 88 | 1015.6 |
| 20260505083003 | 7 | 267 | 1.6 | 4.8 | 0.00 | 0.00 | 0.00 | 88 | 1015.5 |
| 20260505082503 | 7 | 264 | 1.6 | 4.8 | 0.00 | 0.00 | 0.00 | 89 | 1015.4 |
| 20260505082216 | 7 | 267 | 1.6 | 4.8 | 0.00 | 0.00 | 0.00 | 89 | 1015.2 |
| 20260505081504 | 7 | 295 | 1.6 | 3.2 | 0.00 | 0.00 | 0.00 | 90 | 1015.3 |
| 20260505081003 | 7 | 300 | 1.6 | 3.2 | 0.00 | 0.00 | 0.00 | 89 | 1015.4 |
| 20260505080503 | 7 | 283 | 1.6 | 3.2 | 0.00 | 0.00 | 0.00 | 90 | 1015.3 |
| 20260505080003 | 7 | 281 | 1.6 | 3.2 | 0.00 | 0.00 | 0.00 | 89 | 1015.3 |
| 20260505075503 | 7 | 357 | 1.6 | 3.2 | 0.00 | 0.00 | 0.00 | 90 | 1015.3 |
| 20260505075218 | 7 | 30 | 1.6 | 3.2 | 0.00 | 0.00 | 0.00 | 90 | 1015.2 |
| 20260505074503 | 7 | 29 | 0.0 | 3.2 | 0.00 | 0.00 | 0.00 | 90 | 1015.2 |
| 20260505074218 | 7 | 32 | 1.6 | 4.8 | 0.00 | 0.00 | 0.00 | 90 | 1015.0 |
| 20260505073503 | 7 | 351 | 1.6 | 4.8 | 0.00 | 0.00 | 0.00 | 90 | 1015.3 |
| 20260505073218 | 7 | 287 | 1.6 | 4.8 | 0.00 | 0.00 | 0.00 | 90 | 1015.5 |
| 20260505072503 | 7 | 320 | 1.6 | 3.2 | 0.00 | 0.00 | 0.00 | 90 | 1015.3 |
| 20260505072003 | 7 | 316 | 1.6 | 3.2 | 0.00 | 0.00 | 0.00 | 90 | 1015.3 |
| 20260505071503 | 7 | 319 | 1.6 | 4.8 | 0.00 | 0.00 | 0.00 | 91 | 1015.4 |
| 20260505071003 | 7 | 325 | 1.6 | 4.8 | 0.00 | 0.00 | 0.00 | 92 | 1015.5 |
| 20260505070503 | 6 | 358 | 1.6 | 4.8 | 0.00 | 0.00 | 0.00 | 92 | 1015.4 |
| 20260505070218 | 6 | 22 | 1.6 | 4.8 | 0.00 | 0.00 | 0.00 | 93 | 1015.5 |
| 20260505065503 | 6 | 32 | 1.6 | 4.8 | 0.00 | 0.00 | 0.00 | 93 | 1015.4 |
| 20260505065003 | 6 | 34 | 1.6 | 4.8 | 0.00 | 0.00 | 0.00 | 94 | 1015.6 |
| 20260505064503 | 5 | 28 | 1.6 | 3.2 | 0.00 | 0.00 | 0.00 | 95 | 1015.7 |
| 20260505064218 | 5 | 22 | 1.6 | 3.2 | 0.00 | 0.00 | 0.00 | 95 | 1015.7 |
| 20260505063716 | 5 | 10 | 1.6 | 4.8 | 0.00 | 0.00 | 0.00 | 96 | 1015.6 |
| 20260505063003 | 5 | 20 | 1.6 | 4.8 | 0.00 | 0.00 | 0.00 | 97 | 1015.6 |
| 20260505062719 | 5 | 21 | 1.6 | 4.8 | 0.00 | 0.00 | 0.00 | 97 | 1015.5 |
| 20260505062003 | 5 | 359 | 1.6 | 4.8 | 0.00 | 0.00 | 0.00 | 97 | 1015.6 |
| 20260505061503 | 5 | 325 | 1.6 | 3.2 | 0.00 | 0.00 | 0.00 | 97 | 1015.5 |
| 20260505061004 | 4 | 325 | 1.6 | 3.2 | 0.00 | 0.00 | 0.00 | 97 | 1015.6 |
| 20260505060503 | 4 | 327 | 1.6 | 4.8 | 0.00 | 0.00 | 0.00 | 97 | 1015.7 |
| 20260505060003 | 4 | 316 | 1.6 | 4.8 | 0.00 | 0.00 | 0.00 | 97 | 1015.7 |
| 20260505055503 | 3 | 309 | 1.6 | 4.8 | 0.00 | 0.00 | 0.00 | 97 | 1015.8 |
| 20260505055003 | 3 | 318 | 1.6 | 4.8 | 0.00 | 0.00 | 0.00 | 97 | 1015.7 |
| 20260505054503 | 3 | 331 | 1.6 | 4.8 | 0.00 | 0.00 | 0.00 | 97 | 1015.5 |
| 20260505054003 | 3 | 332 | 1.6 | 3.2 | 0.00 | 0.00 | 0.00 | 97 | 1015.7 |
| 20260505053503 | 3 | 344 | 1.6 | 3.2 | 0.00 | 0.00 | 0.00 | 97 | 1015.6 |
| 20260505053003 | 3 | 335 | 1.6 | 4.8 | 0.00 | 0.00 | 0.00 | 97 | 1015.7 |
| 20260505052503 | 3 | 313 | 1.6 | 4.8 | 0.00 | 0.00 | 0.00 | 97 | 1015.6 |
| 20260505052003 | 3 | 337 | 1.6 | 4.8 | 0.00 | 0.00 | 0.00 | 97 | 1015.6 |
| 20260505051718 | 3 | 350 | 1.6 | 3.2 | 0.00 | 0.00 | 0.00 | 97 | 1015.5 |
| 20260505051003 | 3 | 347 | 1.6 | 3.2 | 0.00 | 0.00 | 0.00 | 97 | 1015.5 |
| 20260505050503 | 3 | 343 | 1.6 | 3.2 | 0.00 | 0.00 | 0.00 | 97 | 1015.6 |
| 20260505041503 | 3 | 8 | 1.6 | 3.2 | 0.00 | 0.00 | 0.00 | 96 | 1015.3 |
| 20260505041003 | 3 | 350 | 1.6 | 3.2 | 0.00 | 0.00 | 0.00 | 96 | 1015.1 |
| 20260505040718 | 3 | 334 | 1.6 | 3.2 | 0.00 | 0.00 | 0.00 | 96 | 1015.5 |
| 20260505040004 | 3 | 338 | 1.6 | 3.2 | 0.00 | 0.00 | 0.00 | 96 | 1015.3 |
| 20260505035503 | 3 | 322 | 1.6 | 3.2 | 0.00 | 0.00 | 0.00 | 96 | 1015.3 |
| 20260505035003 | 4 | 316 | 1.6 | 3.2 | 0.00 | 0.00 | 0.00 | 96 | 1015.3 |
| 20260505034503 | 4 | 315 | 1.6 | 3.2 | 0.00 | 0.00 | 0.00 | 96 | 1015.4 |
| 20260505034003 | 4 | 318 | 0.0 | 3.2 | 0.00 | 0.00 | 0.00 | 96 | 1015.4 |
| 20260505033717 | 4 | 323 | 0.0 | 3.2 | 0.00 | 0.00 | 0.00 | 96 | 1015.3 |
| 20260505033003 | 4 | 331 | 0.0 | 3.2 | 0.00 | 0.00 | 0.00 | 96 | 1015.2 |
| 20260505032503 | 4 | 348 | 0.0 | 3.2 | 0.00 | 0.00 | 0.00 | 96 | 1015.3 |
| 20260505032003 | 4 | 4 | 0.0 | 3.2 | 0.00 | 0.00 | 0.00 | 96 | 1015.4 |
| 20260505031503 | 5 | 357 | 0.0 | 3.2 | 0.00 | 0.00 | 0.00 | 96 | 1015.5 |
| 20260505031003 | 5 | 324 | 0.0 | 3.2 | 0.00 | 0.00 | 0.00 | 96 | 1015.3 |
| 20260505030503 | 5 | 315 | 0.0 | 3.2 | 0.00 | 0.00 | 0.00 | 96 | 1015.3 |
| 20260505030004 | 5 | 323 | 1.6 | 3.2 | 0.00 | 0.00 | 0.00 | 95 | 1015.2 |
| 20260505025503 | 5 | 321 | 1.6 | 3.2 | 0.00 | 0.00 | 0.00 | 95 | 1015.2 |
| 20260505025003 | 5 | 317 | 1.6 | 3.2 | 0.00 | 0.00 | 0.00 | 95 | 1015.0 |
| 20260505024503 | 5 | 328 | 1.6 | 3.2 | 0.00 | 0.00 | 0.00 | 95 | 1015.3 |
| 20260505024003 | 5 | 335 | 1.6 | 3.2 | 0.00 | 0.00 | 0.00 | 95 | 1015.1 |
| 20260505023717 | 5 | 334 | 1.6 | 3.2 | 0.00 | 0.00 | 0.00 | 95 | 1015.2 |
| 20260505023003 | 5 | 338 | 0.0 | 3.2 | 0.00 | 0.00 | 0.00 | 95 | 1015.2 |
| 20260505022503 | 5 | 334 | 0.0 | 3.2 | 0.00 | 0.00 | 0.00 | 94 | 1015.2 |
| 20260505022003 | 5 | 329 | 1.6 | 3.2 | 0.00 | 0.00 | 0.00 | 94 | 1015.2 |
| 20260505021717 | 5 | 323 | 0.0 | 3.2 | 0.00 | 0.00 | 0.00 | 94 | 1015.3 |
| 20260505021003 | 5 | 326 | 0.0 | 1.6 | 0.00 | 0.00 | 0.00 | 94 | 1015.4 |
| 20260505020503 | 5 | 306 | 0.0 | 3.2 | 0.00 | 0.00 | 0.00 | 94 | 1015.2 |
| 20260505020003 | 5 | 300 | 0.0 | 3.2 | 0.00 | 0.00 | 0.00 | 94 | 1015.3 |
| 20260505015503 | 5 | 318 | 0.0 | 3.2 | 0.00 | 0.00 | 0.00 | 94 | 1015.2 |
| 20260505015218 | 5 | 321 | 0.0 | 3.2 | 0.00 | 0.00 | 0.00 | 93 | 1015.5 |
| 20260505014503 | 6 | 344 | 0.0 | 3.2 | 0.00 | 0.00 | 0.00 | 93 | 1015.4 |
| 20260505014003 | 6 | 353 | 0.0 | 3.2 | 0.00 | 0.00 | 0.00 | 93 | 1015.2 |
| 20260505013717 | 6 | 348 | 0.0 | 1.6 | 0.00 | 0.00 | 0.00 | 93 | 1015.5 |
| 20260505013003 | 6 | 325 | 0.0 | 3.2 | 0.00 | 0.00 | 0.00 | 93 | 1015.5 |
| 20260505012503 | 6 | 354 | 0.0 | 3.2 | 0.00 | 0.00 | 0.00 | 92 | 1015.5 |
| 20260505012003 | 6 | 331 | 0.0 | 3.2 | 0.00 | 0.00 | 0.00 | 92 | 1015.6 |
| 20260505011503 | 6 | 325 | 0.0 | 3.2 | 0.00 | 0.00 | 0.00 | 92 | 1015.8 |
| 20260505011003 | 6 | 333 | 0.0 | 3.2 | 0.00 | 0.00 | 0.00 | 92 | 1015.7 |
| 20260505010504 | 6 | 319 | 1.6 | 3.2 | 0.00 | 0.00 | 0.00 | 91 | 1015.4 |
| 20260505010217 | 7 | 312 | 1.6 | 3.2 | 0.00 | 0.00 | 0.00 | 91 | 1015.7 |
| 20260505005503 | 7 | 315 | 0.0 | 3.2 | 0.00 | 0.00 | 0.00 | 91 | 1015.6 |
| 20260505005004 | 7 | 315 | 0.0 | 3.2 | 0.00 | 0.00 | 0.00 | 91 | 1015.4 |
| 20260505004503 | 7 | 345 | 0.0 | 1.6 | 0.00 | 0.00 | 0.00 | 91 | 1015.6 |
| 20260505004003 | 7 | 337 | 0.0 | 1.6 | 0.00 | 0.00 | 0.00 | 90 | 1015.7 |
| 20260505003503 | 7 | 325 | 1.6 | 3.2 | 0.00 | 0.00 | 0.00 | 90 | 1015.7 |
| 20260505003003 | 7 | 317 | 1.6 | 3.2 | 0.00 | 0.00 | 0.00 | 90 | 1015.7 |
| 20260505002503 | 7 | 311 | 1.6 | 3.2 | 0.00 | 0.00 | 0.00 | 90 | 1015.7 |
| 20260505002003 | 8 | 309 | 0.0 | 3.2 | 0.00 | 0.00 | 0.00 | 90 | 1015.7 |
| 20260505001503 | 8 | 309 | 0.0 | 3.2 | 0.00 | 0.00 | 0.00 | 89 | 1015.8 |
| 20260505001003 | 8 | 313 | 0.0 | 3.2 | 0.00 | 0.00 | 0.00 | 89 | 1015.8 |
| 20260505000503 | 8 | 327 | 0.0 | 1.6 | 0.00 | 0.00 | 0.00 | 89 | 1015.8 |
| 20260505000003 | 8 | 325 | 0.0 | 3.2 | 0.00 | 0.00 | 0.00 | 89 | 1015.8 |
| 20260504235503 | 8 | 311 | 0.0 | 3.2 | 0.00 | 0.00 | 0.00 | 89 | 1015.9 |
| 20260504235003 | 8 | 313 | 0.0 | 3.2 | 0.00 | 0.00 | 0.00 | 88 | 1015.9 |
| 20260504234503 | 8 | 328 | 1.6 | 3.2 | 0.00 | 0.00 | 0.00 | 88 | 1015.8 |
| 20260504234003 | 8 | 326 | 1.6 | 3.2 | 0.00 | 0.00 | 0.00 | 88 | 1015.7 |
| 20260504233503 | 8 | 317 | 1.6 | 3.2 | 0.00 | 0.00 | 0.00 | 87 | 1015.8 |
| 20260504233003 | 8 | 306 | 1.6 | 3.2 | 0.00 | 0.00 | 0.00 | 87 | 1015.9 |
| 20260504232503 | 9 | 300 | 1.6 | 3.2 | 0.00 | 0.00 | 0.00 | 86 | 1015.8 |
| 20260504232003 | 10 | 314 | 0.0 | 3.2 | 0.00 | 0.00 | 0.00 | 85 | 1015.6 |
| 20260504231503 | 10 | 320 | 0.0 | 3.2 | 0.00 | 0.00 | 0.00 | 86 | 1015.7 |
| 20260504231003 | 10 | 318 | 1.6 | 3.2 | 0.00 | 0.00 | 0.00 | 85 | 1015.8 |
| 20260504230503 | 10 | 318 | 1.6 | 3.2 | 0.00 | 0.00 | 0.00 | 85 | 1015.9 |
| 20260504230003 | 10 | 319 | 0.0 | 3.2 | 0.00 | 0.00 | 0.00 | 85 | 1015.9 |
| 20260504225503 | 10 | 315 | 0.0 | 3.2 | 0.00 | 0.00 | 0.00 | 84 | 1015.9 |
| 20260504225003 | 10 | 311 | 0.0 | 3.2 | 0.00 | 0.00 | 0.00 | 84 | 1015.8 |
| 20260504224503 | 10 | 313 | 0.0 | 3.2 | 0.00 | 0.00 | 0.00 | 83 | 1015.9 |
| 20260504224003 | 10 | 311 | 1.6 | 3.2 | 0.00 | 0.00 | 0.00 | 83 | 1015.8 |
| 20260504223503 | 10 | 307 | 1.6 | 3.2 | 0.00 | 0.00 | 0.00 | 83 | 1015.8 |
| 20260504223003 | 10 | 312 | 1.6 | 3.2 | 0.00 | 0.00 | 0.00 | 83 | 1015.7 |
| 20260504222503 | 10 | 323 | 1.6 | 3.2 | 0.00 | 0.00 | 0.00 | 82 | 1016.0 |
| 20260504222003 | 10 | 318 | 1.6 | 3.2 | 0.00 | 0.00 | 0.00 | 82 | 1015.9 |
| 20260504221503 | 10 | 313 | 1.6 | 3.2 | 0.00 | 0.00 | 0.00 | 82 | 1016.1 |
| 20260504221003 | 10 | 317 | 1.6 | 3.2 | 0.00 | 0.00 | 0.00 | 83 | 1016.0 |
| 20260504220503 | 10 | 319 | 1.6 | 3.2 | 0.00 | 0.00 | 0.00 | 82 | 1016.0 |
| 20260504220003 | 10 | 308 | 1.6 | 3.2 | 0.00 | 0.00 | 0.00 | 83 | 1016.0 |
| 20260504215503 | 11 | 307 | 1.6 | 3.2 | 0.00 | 0.00 | 0.00 | 83 | 1016.1 |
| 20260504215003 | 11 | 319 | 1.6 | 3.2 | 0.00 | 0.00 | 0.00 | 83 | 1015.8 |
| 20260504214503 | 11 | 314 | 1.6 | 3.2 | 0.00 | 0.00 | 0.00 | 82 | 1016.2 |
| 20260504214003 | 11 | 314 | 1.6 | 3.2 | 0.00 | 0.00 | 0.00 | 82 | 1016.0 |
| 20260504213503 | 11 | 321 | 1.6 | 3.2 | 0.00 | 0.00 | 0.00 | 82 | 1016.1 |
| 20260504213218 | 11 | 315 | 1.6 | 3.2 | 0.00 | 0.00 | 0.00 | 82 | 1015.9 |
| 20260504212503 | 11 | 305 | 1.6 | 3.2 | 0.00 | 0.00 | 0.00 | 81 | 1016.0 |
| 20260504212003 | 11 | 310 | 1.6 | 3.2 | 0.00 | 0.00 | 0.00 | 81 | 1015.9 |
| 20260504211503 | 11 | 308 | 1.6 | 3.2 | 0.00 | 0.00 | 0.00 | 80 | 1016.1 |
| 20260504211003 | 11 | 308 | 1.6 | 3.2 | 0.00 | 0.00 | 0.00 | 80 | 1016.1 |
| 20260504210503 | 11 | 313 | 1.6 | 3.2 | 0.00 | 0.00 | 0.00 | 80 | 1016.0 |
| 20260504210218 | 11 | 320 | 1.6 | 3.2 | 0.00 | 0.00 | 0.00 | 80 | 1016.1 |
| 20260504205717 | 11 | 316 | 1.6 | 3.2 | 0.00 | 0.00 | 0.00 | 80 | 1016.0 |
| 20260504205003 | 11 | 321 | 0.0 | 3.2 | 0.00 | 0.00 | 0.00 | 81 | 1016.0 |
| 20260504204504 | 11 | 325 | 0.0 | 3.2 | 0.00 | 0.00 | 0.00 | 81 | 1016.0 |
| 20260504204003 | 11 | 313 | 0.0 | 3.2 | 0.00 | 0.00 | 0.00 | 80 | 1016.0 |
| 20260504203503 | 11 | 312 | 0.0 | 3.2 | 0.00 | 0.00 | 0.00 | 80 | 1015.9 |
| 20260504203003 | 11 | 310 | 1.6 | 3.2 | 0.00 | 0.00 | 0.00 | 79 | 1015.7 |
| 20260504202504 | 12 | 308 | 1.6 | 3.2 | 0.00 | 0.00 | 0.00 | 79 | 1015.7 |
| 20260504202003 | 12 | 322 | 1.6 | 3.2 | 0.00 | 0.00 | 0.00 | 79 | 1015.7 |
| 20260504201503 | 12 | 289 | 1.6 | 4.8 | 0.00 | 0.00 | 0.00 | 78 | 1015.6 |
| 20260504201003 | 12 | 267 | 1.6 | 6.4 | 0.00 | 0.00 | 0.00 | 78 | 1015.6 |
| 20260504200503 | 12 | 264 | 1.6 | 6.4 | 0.00 | 0.00 | 0.00 | 77 | 1015.3 |
| 20260504200003 | 12 | 268 | 1.6 | 6.4 | 0.00 | 0.00 | 0.00 | 78 | 1015.4 |
| 20260504195503 | 12 | 298 | 1.6 | 3.2 | 0.00 | 0.00 | 0.00 | 79 | 1015.2 |
| 20260504195217 | 12 | 300 | 1.6 | 3.2 | 0.00 | 0.00 | 0.00 | 79 | 1015.2 |
| 20260504194503 | 12 | 286 | 1.6 | 4.8 | 0.00 | 0.00 | 0.00 | 79 | 1015.2 |
| 20260504194003 | 12 | 287 | 1.6 | 4.8 | 0.00 | 0.00 | 0.00 | 78 | 1015.2 |
| 20260504193503 | 12 | 276 | 1.6 | 4.8 | 0.00 | 0.00 | 0.00 | 78 | 1014.9 |
| 20260504193003 | 13 | 282 | 1.6 | 4.8 | 0.00 | 0.00 | 0.00 | 77 | 1015.0 |
| 20260504192503 | 13 | 284 | 1.6 | 3.2 | 0.00 | 0.00 | 0.00 | 78 | 1014.8 |
| 20260504192003 | 13 | 290 | 1.6 | 3.2 | 0.00 | 0.00 | 0.00 | 78 | 1014.8 |
| 20260504191503 | 13 | 317 | 1.6 | 3.2 | 0.00 | 0.00 | 0.00 | 78 | 1014.9 |
| 20260504191003 | 13 | 329 | 0.0 | 3.2 | 0.00 | 0.00 | 0.00 | 78 | 1014.6 |
| 20260504190504 | 13 | 340 | 0.0 | 3.2 | 0.00 | 0.00 | 0.00 | 77 | 1014.7 |
| 20260504190003 | 13 | 332 | 1.6 | 3.2 | 0.00 | 0.00 | 0.00 | 78 | 1014.8 |
| 20260504185503 | 13 | 331 | 1.6 | 3.2 | 0.00 | 0.00 | 0.00 | 76 | 1014.7 |
| 20260504185003 | 13 | 340 | 1.6 | 3.2 | 0.00 | 0.00 | 0.00 | 77 | 1014.6 |
| 20260504184503 | 13 | 347 | 1.6 | 3.2 | 0.00 | 0.00 | 0.00 | 77 | 1014.3 |